When you browse on this site, cookies collect data to enhance your experience and personalize the content and advertising you see.
Visit our Privacy Policy to learn more. By continuing to use the site, you agree to this use of cookies and data.
EN

Hourly Weather Gemerek

Today, 9 July, Thursday

Time Temperature Precipitation Wind Pressure Humidity
00:00 +18°C° 0 mm 2 mps 656 mmHg 87%
01:00 +17°C° 0 mm 2 mps 656 mmHg 89%
02:00 +17°C° 0 mm 3 mps 656 mmHg 89%
03:00 +17°C° 0 mm 3 mps 656 mmHg 89%
04:00 +16°C° 0 mm 2 mps 656 mmHg 89%
05:00 +16°C° 0 mm 2 mps 656 mmHg 89%
06:00 +17°C° 0 mm 3 mps 656 mmHg 81%
07:00 +19°C° 0 mm 3 mps 657 mmHg 74%
08:00 +20°C° 0 mm 3 mps 657 mmHg 66%
09:00 +22°C° 0 mm 4 mps 657 mmHg 60%
10:00 +25°C° 0 mm 4 mps 658 mmHg 53%
11:00 +26°C° 0 mm 4 mps 658 mmHg 47%
12:00 +27°C° 0 mm 5 mps 658 mmHg 46%
13:00 +27°C° 0 mm 5 mps 658 mmHg 44%
14:00 +28°C° 0 mm 6 mps 657 mmHg 43%
15:00 +27°C° 0 mm 6 mps 657 mmHg 48%
16:00 +24°C° 0 mm 6 mps 657 mmHg 52%
17:00 +23°C° 0 mm 7 mps 657 mmHg 57%
18:00 +22°C° 0 mm 6 mps 657 mmHg 63%
19:00 +20°C° 0 mm 5 mps 657 mmHg 69%
20:00 +18°C° 0 mm 4 mps 657 mmHg 76%
21:00 +18°C° 0 mm 3 mps 657 mmHg 78%
22:00 +17°C° 0 mm 3 mps 657 mmHg 81%
23:00 +17°C° 0 mm 3 mps 656 mmHg 84%

Tomorrow, 10 July, Friday

Time Temperature Precipitation Wind Pressure Humidity
00:00 +16°C° 0 mm 3 mps 656 mmHg 85%
01:00 +16°C° 0 mm 2 mps 656 mmHg 86%
02:00 +16°C° 0 mm 2 mps 656 mmHg 87%
03:00 +16°C° 0 mm 3 mps 656 mmHg 85%
04:00 +16°C° 0 mm 3 mps 656 mmHg 84%
05:00 +16°C° 0 mm 3 mps 656 mmHg 82%
06:00 +17°C° 0 mm 4 mps 657 mmHg 78%
07:00 +18°C° 0 mm 4 mps 657 mmHg 73%
08:00 +19°C° 0 mm 5 mps 657 mmHg 68%
09:00 +21°C° 0 mm 5 mps 657 mmHg 63%
10:00 +22°C° 0 mm 5 mps 658 mmHg 57%
11:00 +25°C° 0 mm 5 mps 658 mmHg 52%
12:00 +26°C° 0 mm 5 mps 658 mmHg 49%
13:00 +27°C° 0 mm 5 mps 657 mmHg 47%
14:00 +28°C° 0 mm 5 mps 657 mmHg 44%
15:00 +27°C° 0 mm 5 mps 657 mmHg 49%
16:00 +26°C° 0 mm 6 mps 657 mmHg 53%
17:00 +24°C° 0 mm 6 mps 657 mmHg 57%
18:00 +22°C° 0 mm 5 mps 657 mmHg 64%
19:00 +20°C° 0 mm 4 mps 657 mmHg 71%
20:00 +18°C° 0 mm 3 mps 657 mmHg 78%
21:00 +18°C° 0 mm 2 mps 657 mmHg 80%
22:00 +17°C° 0 mm 2 mps 657 mmHg 82%
23:00 +16°C° 0 mm 2 mps 656 mmHg 85%

Day after tomorrow, 11 July, Saturday

Time Temperature Precipitation Wind Pressure Humidity
00:00 +16°C° 0 mm 2 mps 656 mmHg 87%
01:00 +16°C° 0 mm 2 mps 656 mmHg 89%
02:00 +15°C° 0 mm 2 mps 656 mmHg 90%
03:00 +15°C° 0 mm 2 mps 656 mmHg 91%
04:00 +15°C° 0 mm 2 mps 656 mmHg 91%
05:00 +15°C° 0 mm 1 mps 656 mmHg 92%
06:00 +16°C° 0 mm 2 mps 656 mmHg 83%
07:00 +18°C° 0 mm 2 mps 657 mmHg 75%
08:00 +20°C° 0 mm 2 mps 657 mmHg 67%
09:00 +23°C° 0 mm 2 mps 657 mmHg 60%
10:00 +24°C° 0 mm 2 mps 657 mmHg 53%
11:00 +26°C° 0 mm 2 mps 657 mmHg 46%
12:00 +27°C° 0 mm 2 mps 657 mmHg 43%
13:00 +28°C° 0 mm 3 mps 657 mmHg 39%
14:00 +30°C° 0 mm 3 mps 657 mmHg 36%
15:00 +29°C° 0 mm 4 mps 657 mmHg 40%
16:00 +28°C° 0 mm 5 mps 656 mmHg 44%
17:00 +27°C° 0 mm 6 mps 656 mmHg 47%
18:00 +25°C° 0 mm 5 mps 656 mmHg 56%
19:00 +22°C° 0 mm 3 mps 656 mmHg 64%
20:00 +20°C° 0 mm 2 mps 656 mmHg 73%
21:00 +19°C° 0 mm 2 mps 655 mmHg 76%
22:00 +20°C° 0 mm 1 mps 655 mmHg 79%
23:00 +19°C° 0 mm 1 mps 655 mmHg 82%

12 July, Sunday

Time Temperature Precipitation Wind Pressure Humidity
00:00 +18°C° 0 mm 1 mps 655 mmHg 84%
01:00 +18°C° 0 mm 1 mps 654 mmHg 85%
02:00 +16°C° 0 mm 1 mps 654 mmHg 87%
03:00 +16°C° 0 mm 1 mps 654 mmHg 88%
04:00 +16°C° 0 mm 1 mps 654 mmHg 88%
05:00 +16°C° 0 mm 1 mps 654 mmHg 88%
06:00 +19°C° 0 mm 1 mps 655 mmHg 79%
07:00 +21°C° 0 mm 1 mps 655 mmHg 69%
08:00 +23°C° 0 mm 1 mps 655 mmHg 60%
09:00 +25°C° 0 mm 1 mps 656 mmHg 54%
10:00 +26°C° 0 mm 2 mps 656 mmHg 47%
11:00 +28°C° 0 mm 2 mps 656 mmHg 41%
12:00 +29°C° 0 mm 2 mps 656 mmHg 38%
13:00 +30°C° 0 mm 3 mps 656 mmHg 35%
14:00 +31°C° 0 mm 3 mps 656 mmHg 31%
15:00 +30°C° 0 mm 4 mps 655 mmHg 33%
16:00 +30°C° 0 mm 5 mps 655 mmHg 34%
17:00 +29°C° 0 mm 6 mps 655 mmHg 35%
18:00 +27°C° 0 mm 5 mps 655 mmHg 43%
19:00 +25°C° 0 mm 4 mps 655 mmHg 51%
20:00 +22°C° 0 mm 3 mps 655 mmHg 60%
21:00 +21°C° 0 mm 2 mps 654 mmHg 65%
22:00 +20°C° 0 mm 2 mps 654 mmHg 70%
23:00 +20°C° 0 mm 1 mps 654 mmHg 75%

13 July, Monday

Time Temperature Precipitation Wind Pressure Humidity
00:00 +20°C° 0 mm 1 mps 653 mmHg 77%
01:00 +19°C° 0 mm 1 mps 653 mmHg 79%
02:00 +18°C° 0 mm 1 mps 653 mmHg 81%
03:00 +18°C° 0 mm 1 mps 653 mmHg 80%
04:00 +18°C° 0 mm 1 mps 653 mmHg 79%
05:00 +18°C° 0 mm 1 mps 653 mmHg 78%
06:00 +21°C° 0 mm 1 mps 654 mmHg 67%
07:00 +23°C° 0 mm 1 mps 654 mmHg 56%
08:00 +25°C° 0 mm 2 mps 655 mmHg 45%
09:00 +26°C° 0 mm 2 mps 655 mmHg 40%
10:00 +28°C° 0 mm 3 mps 655 mmHg 35%
11:00 +29°C° 0 mm 4 mps 655 mmHg 30%
12:00 +30°C° 0 mm 4 mps 655 mmHg 28%
13:00 +30°C° 0 mm 5 mps 655 mmHg 27%
14:00 +32°C° 0 mm 5 mps 655 mmHg 25%
15:00 +30°C° 0 mm 5 mps 655 mmHg 27%
16:00 +30°C° 0 mm 5 mps 654 mmHg 29%
17:00 +29°C° 0 mm 5 mps 654 mmHg 31%
18:00 +27°C° 0 mm 5 mps 654 mmHg 41%
19:00 +25°C° 0 mm 4 mps 654 mmHg 51%
20:00 +22°C° 0 mm 3 mps 654 mmHg 61%
21:00 +21°C° 0 mm 3 mps 654 mmHg 66%
22:00 +20°C° 0 mm 2 mps 654 mmHg 70%
23:00 +20°C° 0 mm 1 mps 654 mmHg 74%

14 July, Tuesday

Time Temperature Precipitation Wind Pressure Humidity
00:00 +20°C° 0 mm 1 mps 654 mmHg 76%
01:00 +19°C° 0 mm 1 mps 654 mmHg 77%
02:00 +19°C° 0 mm 1 mps 654 mmHg 78%
03:00 +19°C° 0 mm 1 mps 654 mmHg 79%
04:00 +18°C° 0 mm 1 mps 654 mmHg 80%
05:00 +18°C° 0 mm 1 mps 654 mmHg 81%
06:00 +20°C° 0 mm 1 mps 655 mmHg 70%
07:00 +22°C° 0 mm 1 mps 655 mmHg 59%
08:00 +24°C° 0 mm 2 mps 656 mmHg 48%
09:00 +26°C° 0 mm 2 mps 656 mmHg 42%
10:00 +28°C° 0 mm 2 mps 657 mmHg 36%
11:00 +29°C° 0 mm 2 mps 657 mmHg 30%
12:00 +30°C° 0 mm 3 mps 657 mmHg 29%
13:00 +31°C° 0 mm 3 mps 657 mmHg 27%
14:00 +33°C° 0 mm 3 mps 657 mmHg 26%
15:00 +32°C° 0 mm 4 mps 656 mmHg 28%
16:00 +30°C° 0 mm 4 mps 656 mmHg 31%
17:00 +30°C° 0 mm 5 mps 656 mmHg 33%
18:00 +28°C° 0 mm 4 mps 656 mmHg 41%
19:00 +26°C° 0 mm 4 mps 656 mmHg 49%
20:00 +22°C° 0 mm 3 mps 656 mmHg 57%
21:00 +22°C° 0 mm 3 mps 656 mmHg 62%
22:00 +21°C° 0 mm 2 mps 656 mmHg 66%
23:00 +20°C° 0 mm 2 mps 655 mmHg 71%
Show more